Regional Weather Roundup
Issued by NWS Goodland, KS

Home | Current Version | Previous Version | Text Only | Print | Product List | Glossary Off
Versions: 1 2 3 4 5 6 7 8 9 10 11 12 13 14 15 16 17 18 19 20 21 22 23 24 25 26 27 28 29 30 31 32 33 34 35 36 37 38 39 40 41 42 43 44 45 46 47 48 49 50

000
ASUS43 KGLD 280959
RWRGLD

GOODLAND FORECAST AREA HOURLY WEATHER ROUNDUP
NATIONAL WEATHER SERVICE GOODLAND KS
400 AM MDT FRI APR 28 2017

...OFFICIAL OBSERVATIONS...

CITY           SKY/WX    TMP DP  RH WIND       PRES   REMARKS
GOODLAND KS    CLEAR     36  34  92 W12       29.60R
HILL CITY KS   LGT RAIN  46  46 100 E5        29.59S FOG
IMPERIAL NEB   LGT RAIN  40  38  93 NE18      29.59F
MCCOOK NEB     LGT RAIN  43  43 100 E13       29.59R FOG
AKRON CO       CLOUDY    35  33  92 NW5       29.60S
BURLINGTON CO  NOT AVBL
LIMON CO       CLEAR     29  28  96 N3        29.63R
$$

...UNOFFICIAL OBSERVATIONS...

CITY           SKY/WX    TMP DP  RH WIND       PRES   REMARKS
LENORA KS        N/A     44  32  63 MISG        N/A
NORTON KS      LGT RAIN  45  41  87 E10G17    29.57F
SHARON SPRINGS   N/A     34  32  93 CALM        N/A
KIT CARSON CO    N/A     34  32  92 CALM        N/A
YUMA CO        CLOUDY    36  34  93 N5        29.61R
$$




USA.gov is the U.S. government's official web portal to all federal, state and local government web resources and services.